Date,TemperatureHighF,TemperatureAvgF,TemperatureLowF,DewpointHighF,DewpointAvgF,DewpointLowF,HumidityHigh,HumidityAvg,HumidityLow,PressureMaxIn,PressureMinIn,WindSpeedMaxMPH,WindSpeedAvgMPH,GustSpeedMaxMPH,PrecipitationSumIn
2013-1-1,31.6,25.5,14.5,29.8,22.0,10.6,93,86,78,29.85,29.62,9,1,28,0.00
2013-1-2,24.2,14.9,4.3,20.2,10.8,-1.1,89,84,78,30.03,29.81,7,1,7,0.00
2013-1-3,18.4,9.5,3.0,11.2,2.5,-1.8,82,73,56,30.03,29.87,6,1,0,0.00
2013-1-4,34.6,24.8,9.0,24.2,16.8,1.3,79,71,63,29.87,29.73,12,2,0,0.00
2013-1-5,33.2,27.1,15.8,23.6,17.0,8.2,74,66,53,30.19,29.75,9,1,0,0.00
2013-1-6,31.7,24.2,15.1,22.8,17.3,8.0,78,75,68,30.14,29.88,7,0,0,0.01
2013-1-7,27.9,22.1,13.1,22.9,13.6,5.5,82,70,56,30.32,29.89,12,1,0,0.00
2013-1-8,34.0,23.3,9.7,22.5,15.1,3.3,77,71,59,30.30,30.19,8,1,0,0.03
2013-1-9,34.2,25.7,16.5,25.3,18.8,10.9,79,75,66,30.34,29.92,5,0,0,0.00
2013-1-10,35.2,31.4,24.8,23.7,19.7,16.7,71,62,53,30.48,29.96,10,3,0,0.00
2013-1-11,31.1,26.8,20.5,25.6,20.2,14.3,86,76,69,30.48,30.17,3,0,0,0.00
2013-1-12,34.5,31.5,28.9,31.2,28.1,25.3,88,87,86,30.19,30.08,1,0,0,0.02
2013-1-13,40.6,35.5,32.0,37.7,32.3,28.8,89,88,87,30.12,29.94,7,0,0,0.00
2013-1-14,48.2,38.0,29.7,42.0,31.4,20.7,90,78,56,30.22,29.82,12,2,0,0.00
2013-1-15,31.3,27.2,23.3,22.5,19.3,16.7,79,72,61,30.27,30.18,5,0,0,0.00
2013-1-16,27.3,25.2,21.9,23.1,20.8,17.9,87,83,73,30.20,29.75,0,0,0,0.00
2013-1-17,31.2,23.8,16.9,25.0,17.0,2.7,87,75,51,30.07,29.75,7,1,0,0.00
2013-1-18,16.9,8.9,3.0,4.5,-3.4,-10.8,74,57,45,30.34,29.99,10,1,0,0.00
2013-1-19,34.0,24.2,11.7,21.9,15.1,2.5,78,68,55,30.27,29.81,10,1,0,0.01
2013-1-20,36.5,26.7,17.9,26.1,17.9,4.5,84,70,55,29.87,29.50,16,3,0,0.08
2013-1-21,21.0,15.2,8.6,11.7,4.5,-2.5,81,63,50,30.00,29.74,8,1,0,0.00
2013-1-22,16.5,11.3,0.7,11.7,3.9,-4.3,82,72,46,29.99,29.69,12,1,0,0.00
2013-1-23,2.4,-1.9,-7.1,-4.7,-13.1,-17.6,79,59,42,30.05,29.95,9,1,0,0.00
2013-1-24,8.8,-1.0,-9.8,-8.4,-15.1,-20.2,63,51,39,30.14,29.97,9,3,0,0.00
2013-1-25,12.9,5.6,-3.6,1.6,-8.3,-13.9,71,53,38,30.22,29.99,10,2,0,0.00
2013-1-26,12.2,7.4,2.0,1.7,-4.1,-9.2,75,60,41,30.14,29.93,9,2,0,0.00
2013-1-27,18.0,9.9,4.3,-3.0,-5.6,-9.8,66,50,34,30.40,30.13,9,3,0,0.00
2013-1-28,22.5,15.9,6.1,16.0,6.3,-7.0,82,66,51,30.39,29.97,13,0,0,0.00
2013-1-29,31.6,25.6,17.1,26.4,20.5,12.2,87,81,72,30.17,29.99,6,0,0,0.03
2013-1-30,48.7,36.3,29.8,46.2,33.5,26.4,91,90,87,30.10,29.42,8,1,0,0.04
2013-1-31,54.0,38.7,23.7,51.4,31.8,10.4,92,77,52,29.51,28.92,18,9,0,0.10